{"data":{"norad_id":49399,"intl_designator":"2021-102E","name":"Z-SAT","alt_names":[],"object_type":"PAYLOAD","status":"ACTIVE","operator":null,"country":"JPN","launch_date":"2021-11-09","launch_site_code":"KSCUT","launch_vehicle":null,"mission":null,"orbit_class":"UNKNOWN","rcs_meters":null,"size_class":null,"mass_kg":null,"dimensions":null,"purposes":[],"wikipedia_slug":null,"has_3d_model":false,"image_url":null,"decayed_at":null,"tle_current":{"epoch":"2026-09-20T22:33:41.209056Z","epoch_age_seconds":69447,"freshness":"FRESH","line1":"1 49399U 21102E   26263.94006029  .00001348  00000+0  67715-4 0  9994","line2":"2 49399  97.3270 296.3615 0014493 273.2904  86.6673 15.18880308267973","mean_motion":15.18880308,"eccentricity":0.0014493,"inclination_deg":97.327,"raan_deg":296.3615,"arg_perigee_deg":273.2904,"mean_anomaly_deg":86.6673,"bstar":6.7715e-5,"rev_number":26797,"period_min":94.80668044845,"perigee_km":499.24151210554,"apogee_km":519.20521485513,"semimajor_km":6887.3603634803,"source":"CELESTRAK","updated_at":"2026-09-21T09:00:08.078925Z"}}}